Regional Weather Roundup
Issued by NWS

Home | Current Version | Previous Version | Text Only | Print | Product List | Glossary On
Versions: 1 2 3 4 5 6 7 8 9 10 11 12 13 14 15 16 17 18 19 20 21 22 23 24 25 26 27 28 29 30 31 32 33 34 35 36 37 38 39 40 41 42 43 44 45 46 47 48 49 50
000
ASUS43 KDTX 190010
RWRMI
MICHIGAN HOURLY REGIONAL WEATHER ROUNDUP
NATIONAL WEATHER SERVICE DETROIT/PONTIAC MI
800 PM EDT WED OCT 18 2017

NOTE: "FAIR" INDICATES FEW OR NO CLOUDS BELOW 12,000 FEET WITH NO
SIGNIFICANT WEATHER AND/OR OBSTRUCTION TO VISIBILITY.

MIZ047>049-052>055-059>063-066>070-074>076-081>083-190100-
SOUTHEAST LOWER MICHIGAN

CITY           SKY/WX    TMP DP  RH WIND       PRES   REMARKS
ADRIAN         CLEAR     57  40  52 SW9       30.12F
6HR MIN TEMP:  57; 6HR MAX TEMP:  68;

ALMA           CLEAR     60  36  40 S12G20    30.04S
ANN ARBOR      CLEAR     57  41  55 S6        30.11S
BAD AXE        CLEAR     57  39  50 S9        30.05R
CARO           CLEAR     59  38  45 S7        30.04S
DETROIT CITY   CLEAR     62  40  44 SW8       30.11S
6HR MIN TEMP:  62; 6HR MAX TEMP:  67;

DETROIT        PTCLDY    57  42  57 S8        30.12F
6HR MIN TEMP:  57; 6HR MAX TEMP:  70;

FLINT          CLEAR     61  40  45 S9        30.07S
6HR MIN TEMP:  61; 6HR MAX TEMP:  69;

GROSSE ILE     CLEAR     63  43  48 SW10      30.11S
6HR MIN TEMP:  63; 6HR MAX TEMP:  68;

HILLSDALE      CLEAR     57  37  47 S7        30.11S
HOWELL         CLEAR     59  40  49 S7        30.09R
6HR MIN TEMP:  59; 6HR MAX TEMP:  69;


CITY           SKY/WX    TMP DP  RH WIND       PRES   REMARKS
JACKSON        CLEAR     58  40  51 S8        30.09S
6HR MIN TEMP:  58; 6HR MAX TEMP:  68;

LAMBERTVILLE   CLEAR     61  40  45 CALM      30.13S
6HR MIN TEMP:  61; 6HR MAX TEMP:  72;

LANSING        CLEAR     60  37  42 S9        30.07S
6HR MIN TEMP:  59; 6HR MAX TEMP:  69;

LAPEER         FAIR      56  40  54 S7        30.08S
6HR MIN TEMP:  56; 6HR MAX TEMP:  68;

MASON          CLEAR     59  40  49 S5        30.08S
MONROE         CLEAR     60  39  46 S5        30.12S
6HR MIN TEMP:  59; 6HR MAX TEMP:  71;

MT. CLEMENS    CLEAR     54  42  65 S7        30.09S
6HR MIN TEMP:  53; 6HR MAX TEMP:  68;

PONTIAC        CLEAR     60  40  47 S7        30.09S
6HR MIN TEMP:  60; 6HR MAX TEMP:  68;

PORT HOPE        N/A     62  39  42 S6        30.02R
PORT HURON     CLEAR     55  45  67 S5        30.11S
TRI CITIES     CLEAR     62  40  44 S10       30.04R
6HR MIN TEMP:  61; 6HR MAX TEMP:  70;

MIDLAND        FAIR      61  38  42 S7        30.02S
6HR MIN TEMP:  61; 6HR MAX TEMP:  70;

TROY           CLEAR     63  38  38 S5        30.12S
SAGINAW HB     CLEAR     61  37  41 S12       30.04R
$$
MIZ043>046-050>051-056>058-064>065-071>073-077>080-190100-
SOUTHWEST LOWER MICHIGAN

CITY           SKY/WX    TMP DP  RH WIND       PRES   REMARKS
BATTLE CREEK   CLEAR     60  40  47 S13       30.08S
6HR MIN TEMP:  60; 6HR MAX TEMP:  68;

BENTON HARBOR  CLEAR     62  38  40 S8        30.05S
6HR MIN TEMP:  62; 6HR MAX TEMP:  69;

BIG RAPIDS     CLEAR     59  37  44 SW6       30.01R
6HR MIN TEMP:  59; 6HR MAX TEMP:  68;

COLDWATER      CLEAR     60  35  38 S5        30.10S
6HR MIN TEMP:  60; 6HR MAX TEMP:  69;

FREMONT        FAIR      59  43  55 S7        30.02R
HOLLAND        CLEAR     58  41  53 S7        30.04R
6HR MIN TEMP:  58; 6HR MAX TEMP:  69;

GRAND RAPIDS   PTCLDY    60  41  49 S8        30.04S
6HR MIN TEMP:  60; 6HR MAX TEMP:  69;

IONIA          FAIR      60  38  45 S8        30.04S
6HR MIN TEMP:  59; 6HR MAX TEMP:  69;

KALAMAZOO      CLEAR     60  38  43 S8        30.08S
6HR MIN TEMP:  60; 6HR MAX TEMP:  68;

LUDINGTON      CLOUDY    62  44  51 S22G29    29.94F
6HR MIN TEMP:  61; 6HR MAX TEMP:  66;

MARSHALL       CLEAR     58  39  48 S6        30.08F
6HR MIN TEMP:  58; 6HR MAX TEMP:  68;

MOUNT PLEASANT CLEAR     63  38  38 S8        30.01S
6HR MIN TEMP:  63; 6HR MAX TEMP:  71;

MUSKEGON       PTCLDY    63  47  55 S14       30.02R
6HR MIN TEMP:  63; 6HR MAX TEMP:  66;

SOUTH HAVEN    CLEAR     62  38  42 S6        30.05R
$$
MIZ016>042-190100-
NORTHERN LOWER MICHIGAN

CITY           SKY/WX    TMP DP  RH WIND       PRES   REMARKS
ALPENA         CLEAR     62  42  47 S9        29.93S
6HR MIN TEMP:  62; 6HR MAX TEMP:  71;

BEAVER ISLAND  CLOUDY    63  47  56 S13G28    29.84R
BELLAIRE       CLEAR     63  38  40 S9G17     29.91S
6HR MIN TEMP:  63; 6HR MAX TEMP:  71;

CADILLAC       CLEAR     60  35  38 S15       29.97S
CHARLEVOIX     CLEAR     63  42  45 S14G28    29.90S
FRANKFORT      CLOUDY    64  44  48 S15G30    29.91S
GAYLORD        CLEAR     60  36  40 SW22G29   29.93R
6HR MIN TEMP:  60; 6HR MAX TEMP:  69;

GRAYLING       CLEAR     60  35  39 SW7       29.96S
6HR MIN TEMP:  60; 6HR MAX TEMP:  69;

HARBOR SPRINGS CLEAR     64  38  39 S13G22    29.87S
HOUGHTON LAKE  CLEAR     61  39  44 S10G21    29.98S
6HR MIN TEMP:  60; 6HR MAX TEMP:  68;

MANISTEE       CLOUDY    61  44  53 S10G18    29.93F
OSCODA         CLEAR     61  41  47 S12       29.98S
6HR MIN TEMP:  61; 6HR MAX TEMP:  69;

PELLSTON       CLEAR     65  41  41 S18G28    29.86F
6HR MIN TEMP:  65; 6HR MAX TEMP:  72;

ROGERS CITY    CLEAR     63  41  45 S10       29.90S
TRAVERSE CITY  PTCLDY    63  40  42 SW13G22   29.90S
6HR MIN TEMP:  63; 6HR MAX TEMP:  73;

$$
MIZ007>008-015-190100-
EASTERN UPPER MICHIGAN

CITY           SKY/WX    TMP DP  RH WIND       PRES   REMARKS
KINROSS        CLEAR     63  44  50 S10G20    29.82S
6HR MIN TEMP:  63; 6HR MAX TEMP:  68;

MACKINAC ISLAN CLEAR     65  41  40 S20G28    29.84S
6HR MIN TEMP:  65; 6HR MAX TEMP:  69;

NEWBERRY       CLOUDY    59  50  72 S28G38    29.80R
6HR MIN TEMP:  59; 6HR MAX TEMP:  65;

S. S. MARIE    CLOUDY    63  45  51 S14G22    29.80F
6HR MIN TEMP:  63; 6HR MAX TEMP:  69;

MUNISING         N/A     61  52  72 S10G22    29.72R
6HR MIN TEMP:  61; 6HR MAX TEMP:  69;

$$
MIZ004>006-011>014-085-190100-
CENTRAL UPPER MICHIGAN

CITY           SKY/WX    TMP DP  RH WIND       PRES   REMARKS
MANISTIQUE     CLOUDY    58  52  81 SW18G28   29.80S
6HR MIN TEMP:  58; 6HR MAX TEMP:  62;

ESCANABA       MOCLDY    59  53  80 S15G23    29.77F
6HR MIN TEMP:  59; 6HR MAX TEMP:  65;

MENOMINEE      MOCLDY    65  49  56 SW13      29.82R
6HR MIN TEMP:  65; 6HR MAX TEMP:  69;

SAWYER-GWINN   CLEAR     63  48  59 S15G21    29.72R
$$
MIZ001>003-009>011-084-190100-
WESTERN UPPER MICHIGAN

CITY           SKY/WX    TMP DP  RH WIND       PRES   REMARKS
IRON MOUNTAIN  CLEAR     67  44  43 SW12      29.74S
6HR MIN TEMP:  67; 6HR MAX TEMP:  73;

HOUGHTON       CLEAR     63  42  46 W28G36    29.67R
6HR MIN TEMP:  63; 6HR MAX TEMP:  75;

COPPER HARBOR    N/A     67  38  34 NW17G29   29.63R
6HR MIN TEMP:  61; 6HR MAX TEMP:  73;

IRONWOOD       CLEAR     62  41  46 SW13      29.75R
6HR MIN TEMP:  62; 6HR MAX TEMP:  72;

$$

ABBREVIATIONS USED IN REMARKS
   TC - TEMPERATURE IN CELSIUS
  WCI - WIND CHILL INDEX
   HX - HEAT INDEX
  VSB - VISIBILITY





USA.gov is the U.S. government's official web portal to all federal, state and local government web resources and services.